Location: Gälforsberget
(66.6500°N, 22.4167°E)
Time: 17:25:43
(UTC+00:00)

COSMOS 2428 - Pass Details

Date: 11 April 2026
Orbit: 844 x 855 km, 70.9° (Epoch: 16 May)

Event Time Altitude Azimuth Distance (km) Brightness Sun altitude
Rises 21:19:10 0° 230° (SW) 3,425 5.6 -13.6°
Reaches altitude 10° 21:21:37 10° 230° (SW) 2,492 4.9 -13.7°
Maximum altitude 21:27:22 86° 142° (SE) 868 2.7 -13.9°
Drops below altitude 10° 21:33:08 10° 55° (NE) 2,499 5.4 -14.0°
Sets 21:35:35 0° 55° (NE) 3,436 6.2 -14.1°
